White Mountain, AK

12:51 AM AKST on November 25, 2017 (GMT -0900)
White Mountain

Weather History for PAWM - November, 2012

Change the Weather History Date:

Sunday, November 18, 2012

  Actual Average (PAOM) Record (PAOM)
Temperature  
Mean Temperature 8 °F -  
Max Temperature 12 °F 23 °F 44 °F (2014)
Min Temperature 3 °F 8 °F -20 °F (1969)
Degree Days  
Heating Degree Days 58    
Moisture  
Dew Point -4 °F    
Average Humidity 61    
Maximum Humidity 73    
Minimum Humidity 49    
Precipitation  
Precipitation 0.00 in - - ()
Sea Level Pressure  
Sea Level Pressure 30.05 in    
Wind  
Wind Speed 11 mph ()    
Max Wind Speed 17 mph    
Max Gust Speed -    
Visibility 9.4 miles    
Events      
Averages and records for this station are not official NWS values.
T = Trace of Precipitation, MM = Missing Value Source: Averaged Metar Reports

Daily Weather History Graph

Daily Weather History Graph

Search for Another Location

Airport or City:

Trip Planner

Search our weather history database for the weather conditions in past years. The results will help you decide how hot, cold, wet, or windy it might be!

Date:

Astronomy

Nov. 18, 2012 Rise Set
Actual Time 10:40 AM AKST 4:36 PM AKST
Civil Twilight 9:35 AM AKST 5:41 PM AKST
Nautical Twilight 8:32 AM AKST 6:44 PM AKST
Astronomical Twilight 7:34 AM AKST 7:42 PM AKST
Moon 2:38 PM AKST (11/18) 10:55 PM AKST (11/18)
Length of Visible Light 8h 05m
Length of Day
5h 56m
Waxing Crescent, 31% of the Moon is Illuminated
Nov 18
Waxing Crescent
Nov 20
First Quarter
Nov 28
Full
Dec 6
Last Quarter
Dec 12
New

Hourly Weather History & Observations

Time (AKST) Temp. Windchill Dew Point Humidity Pressure Visibility Wind Dir Wind Speed Gust Speed Precip Events Conditions
12:58 AM 6.1 °F -11.6 °F -2.0 °F 69% 29.92 in 10.0 mi North 15.0 mph - N/A   Clear
1:58 AM 7.0 °F -10.4 °F -0.9 °F 70% 29.93 in 10.0 mi NNW 15.0 mph - N/A   Clear
3:58 AM 3.9 °F -13.7 °F -2.9 °F 73% 29.94 in 10.0 mi NNW 13.8 mph - N/A   Clear
4:58 AM 3.0 °F -14.8 °F -4.0 °F 73% 29.93 in 10.0 mi NNW 13.8 mph - N/A   Clear
5:58 AM 3.9 °F -14.3 °F -4.0 °F 70% 29.94 in 10.0 mi North 15.0 mph - N/A   Clear
6:58 AM 5.0 °F -12.3 °F -5.1 °F 63% 29.96 in 10.0 mi North 13.8 mph - N/A   Clear
7:58 AM 3.9 °F -10.4 °F -5.1 °F 66% 29.99 in 10.0 mi NW 9.2 mph - N/A   Clear
8:58 AM 3.9 °F -12.2 °F -5.1 °F 66% 30.00 in 10.0 mi NW 11.5 mph - N/A   Clear
9:58 AM 5.0 °F -14.2 °F -5.1 °F 63% 30.01 in 10.0 mi NNW 17.3 mph - N/A   Clear
10:58 AM 7.0 °F -11.6 °F -6.0 °F 55% 30.02 in 8.0 mi NNW 17.3 mph - N/A   Clear
11:58 AM 8.1 °F -7.0 °F -5.1 °F 55% 30.06 in 8.0 mi North 11.5 mph - N/A   Clear
12:58 PM 10.9 °F -3.4 °F -4.0 °F 51% 30.06 in 8.0 mi North 11.5 mph - N/A   Clear
1:58 PM 12.9 °F 1.6 °F -2.9 °F 49% 30.06 in 8.0 mi North 8.1 mph - N/A   Clear
2:58 PM 12.9 °F 5.2 °F -2.0 °F 51% 30.08 in 8.0 mi Variable 4.6 mph - N/A   Clear
3:58 PM 12.0 °F - -2.0 °F 53% 30.10 in 8.0 mi Calm Calm - N/A   Clear
4:58 PM 9.0 °F -4.2 °F -2.9 °F 59% 30.12 in 8.0 mi NNW 9.2 mph - N/A   Clear
5:58 PM 9.0 °F -6.6 °F -4.0 °F 56% 30.13 in 10.0 mi North 12.7 mph - N/A   Clear
6:58 PM 6.1 °F -7.8 °F -4.0 °F 63% 30.15 in 10.0 mi North 9.2 mph - N/A   Clear
7:58 PM 5.0 °F -10.0 °F -5.1 °F 63% 30.16 in 10.0 mi North 10.4 mph - N/A   Clear
8:58 PM 5.0 °F -9.1 °F -5.1 °F 63% 30.17 in 10.0 mi NNW 9.2 mph - N/A   Clear
9:58 PM 5.0 °F -4.1 °F -6.0 °F 61% 30.17 in 10.0 mi North 4.6 mph - N/A   Clear
10:58 PM 6.1 °F -7.8 °F -5.1 °F 60% 30.17 in 10.0 mi North 9.2 mph - N/A   Clear
11:58 PM 6.1 °F -9.5 °F -5.1 °F 60% 30.17 in 10.0 mi North 11.5 mph - N/A   Clear